Orbital Elements at Epoch 2459200.5 (2020-Dec-17.0) TDB
Reference: JPL 31 (heliocentric ecliptic J2000)
Element | Value | Uncertainty (1-sigma) | Units |
e | .219340884562721 | 3.2403e-08 | |
a | 3.300537832552684 | 1.7906e-08 | au |
q | 2.576594944827852 | 1.0457e-07 | au |
i | .9842165686978995 | 3.5887e-06 | deg |
node | 5.716184003636863 | 0.0002268 | deg |
peri | 314.3685964151866 | 0.00022698 | deg |
M | 71.03150599939812 | 8.3402e-06 | deg |
tp | 2458768.360443812089 (2019-Oct-11.86044381) | 5.0563e-05 | TDB |
period | 2190.158269049882 6.00 | 1.7823e-05 4.88e-08 | d yr |
n | .1643716826712128 | 1.3376e-09 | deg/d |
Q | 4.024480720277515 | 2.1834e-08 | au |
|
| | Orbit Determination Parameters
Additional Information
|